Regional Weather Roundup
Issued by NWS Cleveland, OH

Home | Current Version | Previous Version | Text Only | Print | Product List | Glossary Off
Versions: 1 2 3 4 5 6 7 8 9 10 11 12 13 14 15 16 17 18 19 20 21 22 23 24 25 26 27 28 29 30 31 32 33 34 35 36 37 38 39 40 41 42 43 44 45 46 47 48 49 50

284
ASUS41 KCLE 110200
RWRCLE
OHIO REGIONAL WEATHER ROUNDUP
NATIONAL WEATHER SERVICE WILMINGTON, OH
900 PM EST SUN DEC 10 2017

NOTE: "FAIR" INDICATES FEW OR NO CLOUDS BELOW 12,000 FEET WITH NO
SIGNIFICANT WEATHER AND/OR OBSTRUCTIONS TO VISIBILITY.

OHZ001>008-015>018-024>027-034-035-043-044-110300-
   NORTHWEST OHIO

CITY           SKY/WX    TMP DP  RH WIND       PRES   REMARKS
DEFIANCE       CLOUDY    30  21  69 W3        29.99R
FINDLAY        CLOUDY    32  20  61 SW9       29.96R WCI  24
TOLEDO EXPRESS CLOUDY    29  23  78 SW5       29.96F WCI  24
TOLEDO EXEC    CLOUDY    30  22  72 SW8       29.98R WCI  22
LIMA           CLOUDY    31  22  69 SW9       29.96R WCI  23
$$

OHZ009>014-019>023-028>033-038-089-110300-
   NORTHEAST OHIO

CITY           SKY/WX    TMP DP  RH WIND       PRES   REMARKS
CLE-HOPKINS    FLURRIES  31  20  63 SW10      29.98S WCI  22
CLE-LAKEFRONT  CLOUDY    31  19  61 SW14      29.96S WCI  21
CUY CO. ARPT   CLOUDY    30  19  64 SW16      29.95S WCI  19
LORAIN-ELYRIA  CLOUDY    29  17  61 W13       29.97S WCI  19
ASHTABULA      CLOUDY    27  20  75 SW8       29.95S WCI  19
AKRON-CANTON   CLOUDY    30  17  58 SW12      29.95F WCI  20
WOOSTER        NOT AVBL
MANSFIELD      CLOUDY    29  19  66 SW9       29.95F WCI  20
YOUNGSTOWN     CLOUDY    29  17  61 SW9       29.94F WCI  20
$$

OHZ042-051>053-060>062-070>072-077>081-110300-
  SOUTHWEST OHIO

CITY           SKY/WX    TMP DP  RH WIND       PRES   REMARKS
CINC-COVINGTON MOCLDY    32  20  61 SW7       30.02S WCI  26
CINC-LUNKEN    FAIR      30  21  69 SW7       30.05F WCI  23
HAMILTON       FAIR      25  21  85 CALM      30.03F
DAYTON         NOT AVBL
WRIGHT-PAT AFB CLOUDY    33  22  64 SW8       30.00S WCI  26
DAYTON GENERAL CLOUDY    33  20  58 SW8       30.00S WCI  26
WILMINGTON     CLOUDY    30  21  69 SW10      29.99F WCI  21
$$

OHZ036-037-039>041-045>050-054>059-063>069-073>076-082>088-110300-
  CENTRAL AND SOUTHEAST OHIO

CITY           SKY/WX    TMP DP  RH WIND       PRES   REMARKS
COLUMBUS       CLOUDY    32  22  66 SW7       30.00F WCI  26
OSU AIRPORT    CLOUDY    31  22  69 S7        29.99F WCI  24
BOLTON FIELD   NOT AVBL
RICKENBACK AFB NOT AVBL
NEWARK         CLOUDY    31  21  66 SW6       29.99F WCI  25
MARION         CLOUDY    29  21  72 S8        29.97F WCI  21
LANCASTER      CLOUDY    31  21  66 SW5       30.01F WCI  26
ZANESVILLE     CLOUDY    31  17  56 S5        30.01F WCI  26
NEW PHILLY     CLOUDY    31  17  56 SW7       30.00F WCI  24
$$




USA.gov is the U.S. government's official web portal to all federal, state and local government web resources and services.